Regional Weather Roundup
Issued by NWS

Home | Current Version | Previous Version | Text Only | Print | Product List | Glossary On
Versions: 1 2 3 4 5 6 7 8 9 10 11 12 13 14 15 16 17 18 19 20 21 22 23 24 25 26 27 28 29 30 31 32 33 34 35 36 37 38 39 40 41 42 43 44 45 46 47 48 49 50
250
ASUS43 KMKX 191511
RWRWI

WISCONSIN REGIONAL WEATHER ROUNDUP
NATIONAL WEATHER SERVICE MILWAUKEE/SULLIVAN WI
900 AM CST SUN NOV 19 2017

NOTE: "FAIR" INDICATES FEW OR NO CLOUDS BELOW 12,000 FEET WITH NO
SIGNIFICANT WEATHER AND/OR OBSTRUCTIONS TO VISIBILITY.

WIZ001-002-006>008-014>016-023>028-191600-
NORTHWEST WISCONSIN

CITY           SKY/WX    TMP DP  RH WIND       PRES   REMARKS
SUPERIOR ARPT  MOSUNNY   16  10  77 W7        30.02S WCI   6
ASHLAND        MOSUNNY   16   9  74 W13       29.99S WCI   2
HAYWARD        MOSUNNY   16   8  71 VRB6      29.99S WCI   7
SIREN          CLOUDY    18  11  73 W8        30.03S WCI   8
CUMBERLAND     SUNNY     19  10  68 W9        30.02R WCI   9
RICE LAKE      SUNNY     19  12  73 W10       30.04S WCI   8
CHETEK         SUNNY     19  11  72 W9        30.03S WCI   8
LADYSMITH      SUNNY     19  11  73 W9        30.01S WCI   7
EAU CLAIRE     MOSUNNY   19  11  70 W10       30.05R WCI   7
MENOMONIE      MOSUNNY   21  11  65 W10       30.06S WCI  10
NEW RICHMOND   MOSUNNY   19  12  73 W7        30.06S WCI  10
OSCEOLA        CLOUDY    20  14  75 W6        30.09S WCI  13
$$

WIZ003>005-009-010-017-018-191600-
NORTH CENTRAL WISCONSIN

CITY           SKY/WX    TMP DP  RH WIND       PRES   REMARKS
MANITOWISH WTR LGT SNOW  13  10  89 W12       29.91R WCI  -1
ARBOR VITAE    LGT SNOW  17  12  82 W8        29.91R WCI   6
WOODRUFF       LGT SNOW  17  12  82 W8        29.91R WCI   6
RHINELANDER    CLOUDY     1 N/A N/A W13       29.91R WCI -17
EAGLE RIVER    FLURRIES  16   9  74 NW12      29.89R WCI   3
LAND O LAKES   LGT SNOW  17  13  84 W10       29.89S WCI   4
PHILLIPS       MOSUNNY   14   8  78 W6        29.94S WCI   5
TOMAHAWK       LGT SNOW  16   9  75 W10       29.94S WCI   3
MEDFORD        SUNNY     16   8  71 W10       29.96R WCI   4
MERRILL        FLURRIES  18  10  71 NW6       29.96S WCI   9
$$

WIZ029-030-035-036-043>047-191600-
CENTRAL WISCONSIN

CITY           SKY/WX    TMP DP  RH WIND       PRES   REMARKS
WAUSAU         SUNNY     18  10  71 NW13      29.96R WCI   5
MOSINEE        MOSUNNY   18  12  79 NW12G17   29.97R WCI   5
MARSHFIELD     SUNNY     19   9  65 NW15      29.98R WCI   5
STEVENS POINT  MOSUNNY   19  10  68 NW12      29.98S WCI   6
WAUPACA        SUNNY     25  12  59 W13G18    29.99R WCI  13
WAUTOMA        MOSUNNY   22  13  68 W15       30.01R WCI   9
WISC RAPIDS    SUNNY     20  10  65 NW13      30.01R WCI   7
CAMP DOUGLAS   MOSUNNY   21  10  63 NW15      30.05R WCI   8
$$

WIZ011>013-019>022-031-037>040-048>050-191600-
NORTHEAST WISCONSIN

CITY           SKY/WX    TMP DP  RH WIND       PRES   REMARKS
ANTIGO         CLOUDY    18  10  70 NW14      29.93R WCI   4
SHAWANO        CLOUDY    25  13  59 W13G18    29.96R WCI  14
OCONTO         CLOUDY    24  11  59 NW13      29.96R WCI  12
STURGEON BAY   FLURRIES  24  13  62 NW15G23   29.94R WCI  11
GREEN BAY      CLOUDY    25  15  66 W16       29.97R WCI  12
MANITOWOC      CLOUDY    27  16  63 NW15      29.96R WCI  15
APPLETON       MOSUNNY   25  10  54 NW15G21   29.96R WCI  12
CLINTONVILLE   PTSUNNY   25  10  54 NW13G18   29.98R WCI  13
OSHKOSH        SUNNY     24  13  62 NW16      29.97R WCI  11
$$

WIZ032>034-041-042-053>061-191600-
SOUTHWEST WISCONSIN

CITY           SKY/WX    TMP DP  RH WIND       PRES   REMARKS
LA CROSSE      SUNNY     24  13  62 W10       30.10R WCI  14
SPARTA         SUNNY     22  12  67 W9        30.08R WCI  11
VIROQUA        SUNNY     21  15  76 W10       30.05R WCI  10
BOSCOBEL       SUNNY     25  12  58 NW10G16   30.11R WCI  15
PRAIRIE DU CHI SUNNY     24  12  61 NW12      30.12R WCI  13
PLATTEVILLE    SUNNY     24  17  74 W10       30.08R WCI  13
$$

WIZ056-057-062-063-064-067-068-191600-
SOUTH CENTRAL WISCONSIN

CITY           SKY/WX    TMP DP  RH WIND       PRES   REMARKS
REEDSBURG      SUNNY     22  11  63 NW13      30.05R WCI  10
BARABOO/DELLS  SUNNY     22  11  63 NW9G17    30.03R WCI  11
LONE ROCK      SUNNY     24  14  65 W13       30.08R WCI  12
MINERAL POINT  SUNNY     25  18  74 NW9       30.04S WCI  15
MADISON        MOSUNNY   23  13  65 NW15      30.04R WCI  10
MIDDLETON      SUNNY     25  15  66 NW9       30.04R WCI  16
WATERTOWN      PTSUNNY   24  16  72 NW13G20   30.01R WCI  12
MONROE         SUNNY     23  14  68 NW13      30.04R WCI  11
JANESVILLE     MOSUNNY   27  19  74 NW14G20   30.03R WCI  15
$$

WIZ051-052-058>065-066-070>072-191600-
SOUTHEAST WISCONSIN

CITY           SKY/WX    TMP DP  RH WIND       PRES   REMARKS
MILWAUKEE      MOSUNNY   28  16  60 NW17      29.99R WCI  16
WAUKESHA       PTSUNNY   25  14  63 NW17G23   30.00R WCI  11
MILWAUKEE/TIMM PTSUNNY   27  12  54 W13G23    30.00R WCI  16
RACINE         SUNNY     28  15  58 NW13G24   30.01R WCI  17
BURLINGTON     MOSUNNY   29  22  75 W15G23    30.01R WCI  18
KENOSHA        SUNNY     29  17  61 NW16G22   30.00R WCI  17
FOND DU LAC    SUNNY     24  12  60 NW17      29.98R WCI  11
SHEBOYGAN      PTSUNNY   26  15  63 NW15G24   29.96R WCI  14
WEST BEND      CLOUDY    25  16  68 NW16G25   29.98R WCI  12
JUNEAU         PTSUNNY   23  14  69 W8G16     30.01R WCI  14
$$

LSZ147-162-191600-
LAKE SUPERIOR

STATION/POSITION TIME  TEMP    WIND        PRES    WAVE
                       AIR SEA DIR/SP/G            HT/PER
                 (UTC) (F)     (DEG/KT/KT) (MB)    (FT/S)
DEVILS ISLAND    1500   19     280/ 23/ 28 1015.6S
SAXON HARBOR     1440   18     250/  9/ 13 1015.2R
$$

LMZ867-665-643>646-191600-
LAKE MICHIGAN

STATION/POSITION TIME  TEMP    WIND        PRES    WAVE
                       AIR SEA DIR/SP/G            HT/PER
                 (UTC) (F)     (DEG/KT/KT) (MB)    (FT/S)
N MID LAKE BUOY  1450   27 48  310/ 21/ 25 1012.5R   4/ 5
NORTHPORT PIER   1438   27     310/ 20/ 26 1012.2S
SHEBOYGAN LAKESH 1500   26     280/ 18/ 21 1015.4R
PORT WASHINGTON  1430   28     290/  9/ 16 1015.9R
MILWAUKEE LAKESH 1450   27     280/ 15/ 17   N/A
S MID LAKE BUOY  1350   33 49  330/ 21/ 27 1014.2R   6/ 7
KENOSHA   LAKESH 1500   28     290/ 12/ 16 1016.3
$$

TC  - TEMPERATURE IN CELSIUS
VSB - VISIBILITY IN STATUTE MILES
WCI - WIND CHILL INDEX
HX  - HEAT INDEX





USA.gov is the U.S. government's official web portal to all federal, state and local government web resources and services.